When you browse on this site, cookies collect data to enhance your experience and personalize the content and advertising you see.
Visit our Privacy Policy to learn more. By continuing to use the site, you agree to this use of cookies and data.
  • In Denmark
  • List of Countries
  • For 7 days
  • Water Temperature
  • Satellite Maps
  • Weather Map
  • Weather Widgets
  • user-avatar
    Login

    Hourly Weather Fursovo

    Today, 26 May, Sunday

    Time Temperature Precipitation Wind Pressure Humidity
    00:00 +14°C° 0 mm 2 mps 740 mmHg 96%
    01:00 +14°C° 0 mm 1 mps 739 mmHg 96%
    02:00 +13°C° 0 mm 1 mps 739 mmHg 96%
    03:00 +14°C° 0 mm 1 mps 739 mmHg 95%
    04:00 +13°C° 0 mm 0 mps 739 mmHg 94%
    05:00 +14°C° 0 mm 0 mps 739 mmHg 94%
    06:00 +15°C° 0.1 mm 0 mps 739 mmHg 89%
    07:00 +19°C° 0.1 mm 1 mps 739 mmHg 84%
    08:00 +20°C° 0.1 mm 1 mps 739 mmHg 79%
    09:00 +20°C° 0.6 mm 2 mps 739 mmHg 76%
    10:00 +21°C° 0.6 mm 2 mps 739 mmHg 72%
    11:00 +22°C° 0.6 mm 3 mps 739 mmHg 69%
    12:00 +22°C° 0.4 mm 3 mps 739 mmHg 67%
    13:00 +22°C° 0.4 mm 4 mps 739 mmHg 64%
    14:00 +23°C° 0.4 mm 4 mps 739 mmHg 62%
    15:00 +22°C° 0.1 mm 4 mps 739 mmHg 65%
    16:00 +22°C° 0.1 mm 3 mps 739 mmHg 68%
    17:00 +22°C° 0.1 mm 3 mps 739 mmHg 71%
    18:00 +20°C° 0.1 mm 3 mps 739 mmHg 76%
    19:00 +18°C° 0.1 mm 3 mps 740 mmHg 81%
    20:00 +16°C° 0.1 mm 3 mps 740 mmHg 86%
    21:00 +14°C° 0 mm 3 mps 740 mmHg 87%
    22:00 +13°C° 0 mm 3 mps 741 mmHg 89%
    23:00 +12°C° 0 mm 3 mps 741 mmHg 90%

    Tomorrow, 27 May, Monday

    Time Temperature Precipitation Wind Pressure Humidity
    00:00 +11°C° 0 mm 3 mps 741 mmHg 91%
    01:00 +11°C° 0 mm 3 mps 742 mmHg 92%
    02:00 +10°C° 0 mm 3 mps 742 mmHg 94%
    03:00 +10°C° 0 mm 3 mps 743 mmHg 93%
    04:00 +10°C° 0 mm 3 mps 743 mmHg 93%
    05:00 +11°C° 0 mm 3 mps 743 mmHg 92%
    06:00 +12°C° 0 mm 4 mps 744 mmHg 87%
    07:00 +14°C° 0 mm 4 mps 744 mmHg 81%
    08:00 +15°C° 0 mm 4 mps 744 mmHg 75%
    09:00 +17°C° 0 mm 4 mps 745 mmHg 72%
    10:00 +18°C° 0 mm 4 mps 745 mmHg 69%
    11:00 +19°C° 0 mm 4 mps 745 mmHg 65%
    12:00 +20°C° 0 mm 4 mps 745 mmHg 64%
    13:00 +20°C° 0 mm 5 mps 746 mmHg 62%
    14:00 +21°C° 0 mm 5 mps 746 mmHg 61%
    15:00 +21°C° 0 mm 4 mps 746 mmHg 63%
    16:00 +21°C° 0 mm 4 mps 746 mmHg 66%
    17:00 +21°C° 0 mm 3 mps 746 mmHg 69%
    18:00 +19°C° 0 mm 3 mps 746 mmHg 74%
    19:00 +18°C° 0 mm 3 mps 746 mmHg 80%
    20:00 +16°C° 0 mm 3 mps 746 mmHg 85%
    21:00 +16°C° 0 mm 3 mps 746 mmHg 87%
    22:00 +14°C° 0 mm 3 mps 747 mmHg 90%
    23:00 +14°C° 0 mm 3 mps 747 mmHg 92%

    Day after tomorrow, 28 May, Tuesday

    Time Temperature Precipitation Wind Pressure Humidity
    00:00 +14°C° 0 mm 3 mps 747 mmHg 93%
    01:00 +14°C° 0 mm 3 mps 747 mmHg 94%
    02:00 +13°C° 0 mm 3 mps 747 mmHg 95%
    03:00 +14°C° 0 mm 3 mps 747 mmHg 94%
    04:00 +15°C° 0 mm 4 mps 747 mmHg 94%
    05:00 +15°C° 0 mm 4 mps 747 mmHg 94%
    06:00 +18°C° 0 mm 4 mps 748 mmHg 90%
    07:00 +20°C° 0 mm 4 mps 748 mmHg 86%
    08:00 +21°C° 0 mm 4 mps 748 mmHg 82%
    09:00 +23°C° 0 mm 5 mps 748 mmHg 77%
    10:00 +25°C° 0 mm 5 mps 748 mmHg 72%
    11:00 +26°C° 0 mm 5 mps 748 mmHg 68%
    12:00 +26°C° 0.2 mm 5 mps 748 mmHg 67%
    13:00 +26°C° 0.2 mm 6 mps 748 mmHg 67%
    14:00 +27°C° 0.2 mm 6 mps 748 mmHg 66%
    15:00 +26°C° 0 mm 5 mps 748 mmHg 69%
    16:00 +26°C° 0 mm 5 mps 747 mmHg 71%
    17:00 +26°C° 0 mm 4 mps 747 mmHg 73%
    18:00 +23°C° 0 mm 4 mps 747 mmHg 78%
    19:00 +22°C° 0 mm 4 mps 748 mmHg 83%
    20:00 +20°C° 0 mm 3 mps 748 mmHg 88%
    21:00 +19°C° 0 mm 3 mps 748 mmHg 90%
    22:00 +19°C° 0 mm 3 mps 748 mmHg 91%
    23:00 +18°C° 0 mm 3 mps 748 mmHg 92%

    29 May, Wednesday

    Time Temperature Precipitation Wind Pressure Humidity
    00:00 +18°C° 0 mm 3 mps 748 mmHg 93%
    01:00 +18°C° 0 mm 3 mps 748 mmHg 93%
    02:00 +17°C° 0 mm 3 mps 748 mmHg 93%
    03:00 +18°C° 0 mm 3 mps 749 mmHg 92%
    04:00 +18°C° 0 mm 3 mps 749 mmHg 91%
    05:00 +18°C° 0 mm 3 mps 749 mmHg 89%
    06:00 +20°C° 0 mm 4 mps 749 mmHg 84%
    07:00 +22°C° 0 mm 4 mps 749 mmHg 79%
    08:00 +23°C° 0 mm 5 mps 749 mmHg 74%
    09:00 +25°C° 0 mm 5 mps 749 mmHg 71%
    10:00 +26°C° 0 mm 6 mps 749 mmHg 67%
    11:00 +27°C° 0 mm 6 mps 749 mmHg 64%
    12:00 +27°C° 0 mm 6 mps 749 mmHg 63%
    13:00 +27°C° 0 mm 6 mps 749 mmHg 63%
    14:00 +28°C° 0 mm 6 mps 749 mmHg 62%
    15:00 +27°C° 0 mm 5 mps 749 mmHg 66%
    16:00 +27°C° 0 mm 4 mps 748 mmHg 70%
    17:00 +27°C° 0 mm 3 mps 748 mmHg 73%
    18:00 +25°C° 0 mm 3 mps 748 mmHg 78%
    19:00 +22°C° 0 mm 3 mps 748 mmHg 84%
    20:00 +21°C° 0 mm 3 mps 748 mmHg 89%
    21:00 +20°C° 0 mm 3 mps 748 mmHg 90%
    22:00 +20°C° 0 mm 3 mps 748 mmHg 92%
    23:00 +19°C° 0 mm 3 mps 748 mmHg 93%

    30 May, Thursday

    Time Temperature Precipitation Wind Pressure Humidity
    00:00 +19°C° 0 mm 3 mps 749 mmHg 93%
    01:00 +18°C° 0 mm 3 mps 749 mmHg 94%
    02:00 +18°C° 0 mm 3 mps 749 mmHg 94%
    03:00 +18°C° 0 mm 3 mps 749 mmHg 93%
    04:00 +18°C° 0 mm 3 mps 749 mmHg 92%
    05:00 +19°C° 0 mm 4 mps 749 mmHg 90%
    06:00 +20°C° 0 mm 4 mps 749 mmHg 85%
    07:00 +22°C° 0 mm 4 mps 749 mmHg 80%
    08:00 +23°C° 0 mm 5 mps 749 mmHg 75%
    09:00 +25°C° 0 mm 5 mps 749 mmHg 70%
    10:00 +26°C° 0 mm 6 mps 749 mmHg 65%
    11:00 +27°C° 0 mm 6 mps 748 mmHg 60%
    12:00 +27°C° 0 mm 6 mps 748 mmHg 60%
    13:00 +28°C° 0 mm 6 mps 748 mmHg 60%
    14:00 +28°C° 0 mm 6 mps 748 mmHg 60%
    15:00 +27°C° 0 mm 5 mps 748 mmHg 64%
    16:00 +27°C° 0 mm 5 mps 748 mmHg 68%
    17:00 +27°C° 0 mm 4 mps 747 mmHg 72%
    18:00 +25°C° 0 mm 4 mps 747 mmHg 75%
    19:00 +23°C° 0 mm 4 mps 747 mmHg 78%
    20:00 +21°C° 0 mm 3 mps 747 mmHg 82%
    21:00 +21°C° 0 mm 4 mps 747 mmHg 83%
    22:00 +20°C° 0 mm 4 mps 747 mmHg 84%
    23:00 +19°C° 0 mm 4 mps 747 mmHg 85%

    31 May, Friday

    Time Temperature Precipitation Wind Pressure Humidity
    00:00 +19°C° 0 mm 4 mps 747 mmHg 85%
    01:00 +19°C° 0 mm 4 mps 747 mmHg 86%
    02:00 +19°C° 0 mm 4 mps 747 mmHg 87%
    03:00 +19°C° 0 mm 4 mps 747 mmHg 87%
    04:00 +19°C° 0 mm 4 mps 747 mmHg 87%
    05:00 +19°C° 0 mm 4 mps 747 mmHg 87%
    06:00 +21°C° 0 mm 4 mps 747 mmHg 83%
    07:00 +22°C° 0 mm 4 mps 747 mmHg 79%
    08:00 +25°C° 0 mm 5 mps 747 mmHg 75%
    09:00 +25°C° 0.5 mm 5 mps 747 mmHg 72%
    10:00 +26°C° 0.5 mm 5 mps 747 mmHg 69%
    11:00 +27°C° 0.5 mm 5 mps 747 mmHg 66%
    12:00 +27°C° 1.2 mm 5 mps 747 mmHg 67%
    13:00 +27°C° 1.2 mm 4 mps 747 mmHg 68%
    14:00 +26°C° 1.2 mm 4 mps 748 mmHg 69%
    15:00 +26°C° 0.4 mm 3 mps 748 mmHg 73%
    16:00 +25°C° 0.4 mm 3 mps 748 mmHg 77%
    17:00 +24°C° 0.4 mm 2 mps 748 mmHg 80%
    18:00 +22°C° 0.9 mm 3 mps 748 mmHg 85%
    19:00 +20°C° 0.9 mm 3 mps 749 mmHg 90%
    20:00 +19°C° 0.9 mm 4 mps 749 mmHg 94%
    21:00 +18°C° 0.1 mm 4 mps 749 mmHg 95%
    22:00 +17°C° 0.1 mm 4 mps 750 mmHg 95%
    23:00 +15°C° 0.1 mm 4 mps 750 mmHg 95%
    Show more